Weather History for Montague, CA

Change the Weather History Date:

Sunday, May 26, 2013

  Actual Average Record
Temperature  
Mean Temperature 60 °F 58 °F  
Max Temperature 69 °F 75 °F 93 °F (1983)
Min Temperature 50 °F 42 °F 31 °F (1989)
Degree Days  
Heating Degree Days 5 7  
Month to date heating degree days 181 256  
Since 1 July heating degree days 4986 5354  
Cooling Degree Days 0 1  
Month to date cooling degree days 12 11  
Year to date cooling degree days 12 11  
Growing Degree Days 8 (Base 50)    
Moisture  
Dew Point 40 °F    
Average Humidity 56    
Maximum Humidity 80    
Minimum Humidity 30    
Precipitation  
Precipitation 0.08 in 0.02 in 0.52 in (1971)
Month to date precipitation 0.82 1.31  
Year to date precipitation 3.38 9.39  
Sea Level Pressure  
Sea Level Pressure 30.03 in    
Wind  
Wind Speed 5 mph (NNW)    
Max Wind Speed 16 mph    
Max Gust Speed 26 mph    
Visibility 9 miles    
Events Rain    
T = Trace of Precipitation, MM = Missing Value Source: NWS Daily Summary

Daily Weather History Graph

Daily Weather History Graph

Search for Another Location

Airport:

Trip Planner

Search our weather history database for the weather conditions in past years. The results will help you decide how hot, cold, wet, or windy it might be!

Date:

Astronomy

May. 26, 2013 Rise Set
Actual Time 5:40 AM PDT 8:33 PM PDT
Civil Twilight 5:07 AM PDT 9:06 PM PDT
Nautical Twilight 4:26 AM PDT 9:48 PM PDT
Astronomical Twilight 3:37 AM PDT 10:37 PM PDT
Moon 10:25 PM PDT (5/26) 7:16 AM PDT (5/26)
Length of Visible Light 15h 59m
Length of Day
14h 53m
Waning Gibbous, 96% of the Moon is Illuminated
May 26
Waning Gibbous
May 31
Last Quarter
Jun 8
New
Jun 16
First Quarter
Jun 23
Full

Hourly Weather History & Observations

Time (PDT) Temp. Windchill Dew Point Humidity Pressure Visibility Wind Dir Wind Speed Gust Speed Precip Events Conditions
12:53 AM 55.0 °F - 37.0 °F 51% 29.99 in 10.0 mi North - - N/A   Overcast
1:53 AM 53.1 °F - 39.0 °F 59% 29.99 in 10.0 mi Calm Calm - N/A   Overcast
2:53 AM 53.1 °F - 39.0 °F 59% 29.99 in 10.0 mi Calm Calm - N/A   Overcast
3:53 AM 53.1 °F - 39.9 °F 61% 29.98 in 10.0 mi Calm Calm - N/A   Overcast
4:53 AM 53.1 °F - 39.9 °F 61% 29.99 in 10.0 mi Calm Calm - N/A   Overcast
5:53 AM 50.0 °F - 44.1 °F 80% 30.00 in 10.0 mi ENE 3.5 mph - 0.00 in   Overcast
6:53 AM 51.1 °F - 44.1 °F 77% 30.02 in 10.0 mi Calm Calm - 0.00 in   Overcast
7:53 AM 53.1 °F - 43.0 °F 69% 30.04 in 10.0 mi Calm Calm - 0.00 in Rain Light Rain
8:53 AM 55.0 °F - 41.0 °F 59% 30.05 in 10.0 mi Calm Calm - 0.00 in   Mostly Cloudy
9:42 AM 50.0 °F - 44.6 °F 82% 30.05 in 1.8 mi WNW 12.7 mph 20.7 mph 0.07 in Rain Heavy Rain
9:47 AM 50.0 °F - 44.6 °F 82% 30.05 in 2.0 mi NW 11.5 mph 18.4 mph 0.08 in Rain Rain
9:53 AM 51.1 °F - 45.0 °F 80% 30.07 in 6.0 mi NNW 8.1 mph - 0.08 in Rain Light Rain
10:53 AM 59.0 °F - 44.1 °F 58% 30.06 in 10.0 mi Variable 4.6 mph - 0.00 in   Mostly Cloudy
11:53 AM 62.1 °F - 39.9 °F 44% 30.05 in 10.0 mi SW 6.9 mph - 0.00 in   Partly Cloudy
12:53 PM 62.1 °F - 41.0 °F 46% 30.04 in 10.0 mi SW 4.6 mph - N/A   Mostly Cloudy
1:53 PM 64.0 °F - 39.0 °F 40% 30.03 in 10.0 mi Variable 5.8 mph - N/A   Mostly Cloudy
2:53 PM 69.1 °F - 37.9 °F 32% 30.01 in 10.0 mi WNW 10.4 mph - N/A   Partly Cloudy
3:53 PM 66.0 °F - 37.0 °F 34% 30.01 in 10.0 mi Variable 4.6 mph - N/A   Overcast
4:53 PM 68.0 °F - 36.0 °F 31% 30.01 in 10.0 mi NW 10.4 mph 19.6 mph N/A   Clear
5:53 PM 66.9 °F - 36.0 °F 32% 30.02 in 10.0 mi NW 15.0 mph - N/A   Clear
6:53 PM 64.9 °F - 35.1 °F 33% 30.02 in 10.0 mi NW 12.7 mph - N/A   Clear
7:53 PM 61.0 °F - 35.1 °F 38% 30.05 in 10.0 mi NNW 6.9 mph - N/A   Clear
8:53 PM 55.9 °F - 39.0 °F 53% 30.07 in 10.0 mi North 9.2 mph - N/A   Clear
9:53 PM 50.0 °F - 37.9 °F 63% 30.09 in 10.0 mi NNE 4.6 mph - N/A   Clear
10:53 PM 48.0 °F - 37.9 °F 68% 30.09 in 10.0 mi NNE 5.8 mph - N/A   Clear
11:53 PM 45.0 °F 42.6 °F 37.9 °F 76% 30.08 in 10.0 mi NNE 4.6 mph - N/A   Clear